Time,TemperatureF,DewpointF,PressureIn,WindDirection,WindDirectionDegrees,WindSpeedMPH,WindSpeedGustMPH,Humidity,HourlyPrecipIn,Conditions,Clouds,dailyrainin,SoftwareType,DateUTC
2013-01-17 00:16:00,38.5,35.0,29.91,West,281,1.0,8.0,86,0.00,,,0.00,weatherlink.com 1.10,2013-01-17 05:16:00,
2013-01-17 00:31:00,38.5,35.0,29.90,West,262,5.0,6.0,86,0.00,,,0.00,weatherlink.com 1.10,2013-01-17 05:31:00,
2013-01-17 00:46:00,38.8,35.0,29.92,WNW,284,6.0,8.0,85,0.00,,,0.00,weatherlink.com 1.10,2013-01-17 05:46:00,
2013-01-17 01:01:00,39.0,35.0,29.91,West,278,4.0,8.0,84,0.00,,,0.00,weatherlink.com 1.10,2013-01-17 06:01:00,
2013-01-17 01:16:00,39.0,34.0,29.90,WNW,287,3.0,7.0,83,0.00,,,0.00,weatherlink.com 1.10,2013-01-17 06:16:00,
2013-01-17 01:31:00,39.2,35.0,29.91,West,266,3.0,7.0,83,0.00,,,0.00,weatherlink.com 1.10,2013-01-17 06:31:00,
2013-01-17 01:46:00,39.4,34.0,29.91,NW,307,2.0,7.0,82,0.00,,,0.00,weatherlink.com 1.10,2013-01-17 06:46:00,
2013-01-17 02:01:00,39.5,34.0,29.91,WNW,290,1.0,9.0,80,0.00,,,0.00,weatherlink.com 1.10,2013-01-17 07:01:00,
2013-01-17 02:16:00,39.5,34.0,29.93,WNW,294,4.0,11.0,79,0.00,,,0.00,weatherlink.com 1.10,2013-01-17 07:16:00,
2013-01-17 02:31:00,39.7,34.0,29.91,West,262,0.0,8.0,79,0.00,,,0.00,weatherlink.com 1.10,2013-01-17 07:31:00,
2013-01-17 02:46:00,39.8,33.0,29.92,SSW,211,3.0,8.0,78,0.00,,,0.00,weatherlink.com 1.10,2013-01-17 07:46:00,
2013-01-17 03:01:00,39.7,34.0,29.93,NNW,328,2.0,7.0,79,0.00,,,0.00,weatherlink.com 1.10,2013-01-17 08:01:00,
2013-01-17 03:16:00,39.6,34.0,29.94,West,274,4.0,8.0,79,0.00,,,0.00,weatherlink.com 1.10,2013-01-17 08:16:00,
2013-01-17 03:31:00,39.7,33.0,29.92,NW,316,6.0,6.0,78,0.00,,,0.00,weatherlink.com 1.10,2013-01-17 08:31:00,
2013-01-17 03:46:00,39.8,33.0,29.93,West,267,3.0,9.0,77,0.00,,,0.00,weatherlink.com 1.10,2013-01-17 08:46:00,
2013-01-17 04:01:00,39.8,33.0,29.93,WNW,301,1.0,7.0,78,0.00,,,0.00,weatherlink.com 1.10,2013-01-17 09:01:00,
2013-01-17 04:16:00,39.9,33.0,29.92,West,281,2.0,9.0,77,0.00,,,0.00,weatherlink.com 1.10,2013-01-17 09:16:00,
2013-01-17 04:31:00,40.1,32.0,29.91,WNW,294,4.0,10.0,73,0.00,,,0.00,weatherlink.com 1.10,2013-01-17 09:31:00,
2013-01-17 04:46:00,40.1,32.0,29.91,West,278,2.0,10.0,73,0.00,,,0.00,weatherlink.com 1.10,2013-01-17 09:46:00,
2013-01-17 05:01:00,40.2,32.0,29.92,WNW,293,1.0,8.0,72,0.00,,,0.00,weatherlink.com 1.10,2013-01-17 10:01:00,
2013-01-17 05:16:00,40.2,32.0,29.93,WNW,283,2.0,4.0,72,0.00,,,0.00,weatherlink.com 1.10,2013-01-17 10:16:00,
2013-01-17 05:31:00,40.1,32.0,29.94,WNW,285,3.0,6.0,72,0.00,,,0.00,weatherlink.com 1.10,2013-01-17 10:31:00,
2013-01-17 05:46:00,40.3,32.0,29.95,WNW,294,1.0,7.0,71,0.00,,,0.00,weatherlink.com 1.10,2013-01-17 10:46:00,
2013-01-17 06:01:00,40.3,31.0,29.95,WNW,291,2.0,8.0,69,0.00,,,0.00,weatherlink.com 1.10,2013-01-17 11:01:00,
2013-01-17 06:16:00,40.1,30.0,29.95,West,259,1.0,10.0,68,0.00,,,0.00,weatherlink.com 1.10,2013-01-17 11:16:00,
2013-01-17 06:31:00,40.1,30.0,29.96,West,266,3.0,8.0,67,0.00,,,0.00,weatherlink.com 1.10,2013-01-17 11:31:00,
2013-01-17 06:46:00,40.1,30.0,29.97,WNW,287,3.0,9.0,68,0.00,,,0.00,weatherlink.com 1.10,2013-01-17 11:46:00,
2013-01-17 07:01:00,40.0,30.0,29.99,WNW,295,1.0,8.0,68,0.00,,,0.00,weatherlink.com 1.10,2013-01-17 12:01:00,
2013-01-17 07:16:00,39.9,30.0,30.00,WNW,287,1.0,9.0,67,0.00,,,0.00,weatherlink.com 1.10,2013-01-17 12:16:00,
2013-01-17 07:31:00,40.0,30.0,30.00,WNW,288,1.0,10.0,67,0.00,,,0.00,weatherlink.com 1.10,2013-01-17 12:31:00,
2013-01-17 07:46:00,39.9,30.0,30.00,WNW,290,2.0,9.0,67,0.00,,,0.00,weatherlink.com 1.10,2013-01-17 12:46:00,
2013-01-17 08:01:00,40.1,29.0,30.02,West,276,2.0,7.0,66,0.00,,,0.00,weatherlink.com 1.10,2013-01-17 13:01:00,
2013-01-17 08:16:00,40.3,30.0,30.03,NW,312,3.0,8.0,66,0.00,,,0.00,weatherlink.com 1.10,2013-01-17 13:16:00,
2013-01-17 08:31:00,40.1,29.0,30.04,SSW,195,0.0,8.0,65,0.00,,,0.00,weatherlink.com 1.10,2013-01-17 13:31:00,
2013-01-17 08:46:00,40.3,30.0,30.04,West,275,2.0,8.0,66,0.00,,,0.00,weatherlink.com 1.10,2013-01-17 13:46:00,
2013-01-17 09:01:00,40.3,29.0,30.04,NE,56,1.0,10.0,64,0.00,,,0.00,weatherlink.com 1.10,2013-01-17 14:01:00,
2013-01-17 09:17:00,40.5,29.0,30.05,NW,318,4.0,10.0,65,0.00,,,0.00,weatherlink.com 1.10,2013-01-17 14:17:00,
2013-01-17 09:32:00,40.8,29.0,30.05,WNW,303,1.0,9.0,63,0.00,,,0.00,weatherlink.com 1.10,2013-01-17 14:32:00,
2013-01-17 09:47:00,41.1,28.0,30.05,NW,315,4.0,9.0,61,0.00,,,0.00,weatherlink.com 1.10,2013-01-17 14:47:00,
2013-01-17 10:02:00,41.2,29.0,30.05,West,267,3.0,9.0,61,0.00,,,0.00,weatherlink.com 1.10,2013-01-17 15:02:00,
2013-01-17 10:17:00,41.7,29.0,30.05,NW,316,11.0,11.0,61,0.00,,,0.00,weatherlink.com 1.10,2013-01-17 15:17:00,
2013-01-17 10:32:00,41.5,29.0,30.04,WNW,300,4.0,9.0,61,0.00,,,0.00,weatherlink.com 1.10,2013-01-17 15:32:00,
2013-01-17 10:47:00,41.7,29.0,30.05,NW,308,2.0,11.0,62,0.00,,,0.00,weatherlink.com 1.10,2013-01-17 15:47:00,
2013-01-17 11:02:00,41.7,28.0,30.05,WNW,290,14.0,16.0,59,0.00,,,0.00,weatherlink.com 1.10,2013-01-17 16:02:00,
2013-01-17 11:17:00,42.0,28.0,30.04,West,267,5.0,13.0,59,0.00,,,0.00,weatherlink.com 1.10,2013-01-17 16:17:00,
2013-01-17 11:47:00,42.5,29.0,30.04,South,170,1.0,12.0,59,0.00,,,0.00,weatherlink.com 1.10,2013-01-17 16:47:00,
2013-01-17 12:02:00,42.9,29.0,30.03,NNE,22,7.0,14.0,58,0.00,,,0.00,weatherlink.com 1.10,2013-01-17 17:02:00,
2013-01-17 12:17:00,43.6,29.0,30.05,NE,48,11.0,11.0,57,0.00,,,0.00,weatherlink.com 1.10,2013-01-17 17:17:00,
2013-01-17 12:32:00,44.3,29.0,30.05,West,277,9.0,17.0,55,0.00,,,0.00,weatherlink.com 1.10,2013-01-17 17:32:00,
2013-01-17 12:47:00,43.9,29.0,30.03,East,94,1.0,10.0,57,0.00,,,0.00,weatherlink.com 1.10,2013-01-17 17:47:00,
2013-01-17 13:02:00,44.3,29.0,30.03,NNE,12,1.0,14.0,55,0.00,,,0.00,weatherlink.com 1.10,2013-01-17 18:02:00,
2013-01-17 13:17:00,44.5,29.0,30.03,West,277,1.0,7.0,55,0.00,,,0.00,weatherlink.com 1.10,2013-01-17 18:17:00,
2013-01-17 13:32:00,44.0,28.0,30.02,WNW,299,4.0,9.0,54,0.00,,,0.00,weatherlink.com 1.10,2013-01-17 18:32:00,
2013-01-17 13:47:00,43.8,29.0,30.03,WNW,283,5.0,6.0,56,0.00,,,0.00,weatherlink.com 1.10,2013-01-17 18:47:00,
2013-01-17 14:02:00,43.9,28.0,30.02,WNW,283,3.0,10.0,53,0.00,,,0.00,weatherlink.com 1.10,2013-01-17 19:02:00,
2013-01-17 14:17:00,43.8,28.0,30.02,West,262,3.0,9.0,55,0.00,,,0.00,weatherlink.com 1.10,2013-01-17 19:17:00,
2013-01-17 14:32:00,43.6,28.0,30.03,WNW,294,5.0,9.0,55,0.00,,,0.00,weatherlink.com 1.10,2013-01-17 19:32:00,
2013-01-17 14:47:00,43.2,28.0,30.02,West,271,1.0,10.0,56,0.00,,,0.00,weatherlink.com 1.10,2013-01-17 19:47:00,
2013-01-17 15:02:00,43.1,28.0,30.04,West,263,1.0,8.0,56,0.00,,,0.00,weatherlink.com 1.10,2013-01-17 20:02:00,
2013-01-17 15:17:00,43.1,27.0,30.02,West,267,3.0,6.0,54,0.00,,,0.00,weatherlink.com 1.10,2013-01-17 20:17:00,
2013-01-17 15:32:00,43.0,27.0,30.03,West,270,2.0,9.0,54,0.00,,,0.00,weatherlink.com 1.10,2013-01-17 20:32:00,
2013-01-17 15:47:00,43.0,28.0,30.04,WNW,287,3.0,11.0,55,0.00,,,0.00,weatherlink.com 1.10,2013-01-17 20:47:00,
2013-01-17 16:02:00,43.0,28.0,30.04,WSW,256,2.0,7.0,55,0.00,,,0.00,weatherlink.com 1.10,2013-01-17 21:02:00,
2013-01-17 16:17:00,42.9,27.0,30.04,WNW,285,3.0,7.0,54,0.00,,,0.00,weatherlink.com 1.10,2013-01-17 21:17:00,
2013-01-17 16:32:00,42.9,28.0,30.04,ENE,67,8.0,8.0,55,0.00,,,0.00,weatherlink.com 1.10,2013-01-17 21:32:00,
2013-01-17 16:47:00,42.6,28.0,30.06,SW,225,0.0,4.0,56,0.00,,,0.00,weatherlink.com 1.10,2013-01-17 21:47:00,
2013-01-17 17:02:00,42.4,28.0,30.06,ENE,58,2.0,4.0,56,0.00,,,0.00,weatherlink.com 1.10,2013-01-17 22:02:00,
2013-01-17 17:17:00,42.2,27.0,30.07,ENE,74,3.0,5.0,55,0.00,,,0.00,weatherlink.com 1.10,2013-01-17 22:17:00,
2013-01-17 17:32:00,42.2,27.0,30.07,ENE,60,2.0,5.0,55,0.00,,,0.00,weatherlink.com 1.10,2013-01-17 22:32:00,
2013-01-17 17:47:00,42.1,26.0,30.05,ENE,64,1.0,4.0,54,0.00,,,0.00,weatherlink.com 1.10,2013-01-17 22:47:00,
2013-01-17 18:02:00,42.0,27.0,30.07,SW,226,0.0,5.0,55,0.00,,,0.00,weatherlink.com 1.10,2013-01-17 23:02:00,
2013-01-17 18:17:00,41.9,26.0,30.08,ENE,65,2.0,4.0,54,0.00,,,0.00,weatherlink.com 1.10,2013-01-17 23:17:00,
2013-01-17 18:32:00,41.8,26.0,30.07,NE,37,1.0,6.0,54,0.00,,,0.00,weatherlink.com 1.10,2013-01-17 23:32:00,
2013-01-17 18:47:00,41.6,26.0,30.08,NW,319,0.0,6.0,54,0.00,,,0.00,weatherlink.com 1.10,2013-01-17 23:47:00,
2013-01-17 19:02:00,41.6,26.0,30.07,East,94,2.0,7.0,55,0.00,,,0.00,weatherlink.com 1.10,2013-01-18 00:02:00,
2013-01-17 19:17:00,41.6,26.0,30.07,WNW,296,2.0,3.0,55,0.00,,,0.00,weatherlink.com 1.10,2013-01-18 00:17:00,
2013-01-17 19:32:00,41.5,26.0,30.07,SSW,200,1.0,7.0,55,0.00,,,0.00,weatherlink.com 1.10,2013-01-18 00:32:00,
2013-01-17 19:47:00,41.5,26.0,30.07,West,270,3.0,7.0,55,0.00,,,0.00,weatherlink.com 1.10,2013-01-18 00:47:00,
2013-01-17 20:02:00,41.4,26.0,30.07,ENE,69,0.0,5.0,55,0.00,,,0.00,weatherlink.com 1.10,2013-01-18 01:02:00,
2013-01-17 20:17:00,41.3,26.0,30.06,West,260,0.0,2.0,56,0.00,,,0.00,weatherlink.com 1.10,2013-01-18 01:17:00,
2013-01-17 20:32:00,41.0,27.0,30.06,ENE,59,3.0,6.0,57,0.00,,,0.00,weatherlink.com 1.10,2013-01-18 01:32:00,
2013-01-17 20:47:00,40.6,27.0,30.04,East,86,0.0,6.0,58,0.00,,,0.00,weatherlink.com 1.10,2013-01-18 01:47:00,
2013-01-17 21:02:00,40.5,27.0,30.05,WNW,285,2.0,6.0,59,0.00,,,0.00,weatherlink.com 1.10,2013-01-18 02:02:00,
2013-01-17 21:17:00,40.1,27.0,30.05,NE,51,2.0,7.0,59,0.00,,,0.00,weatherlink.com 1.10,2013-01-18 02:17:00,
2013-01-17 21:32:00,39.8,27.0,30.04,ENE,57,7.0,9.0,60,0.00,,,0.00,weatherlink.com 1.10,2013-01-18 02:32:00,
2013-01-17 21:47:00,39.3,27.0,30.04,ENE,75,4.0,10.0,62,0.00,,,0.00,weatherlink.com 1.10,2013-01-18 02:47:00,
2013-01-17 22:02:00,38.9,27.0,30.04,ENE,73,4.0,8.0,62,0.00,,,0.00,weatherlink.com 1.10,2013-01-18 03:02:00,
2013-01-17 22:17:00,38.3,27.0,30.01,NE,56,8.0,12.0,63,0.00,,,0.00,weatherlink.com 1.10,2013-01-18 03:17:00,
2013-01-17 22:33:00,38.0,26.0,30.01,East,84,4.0,13.0,63,0.00,,,0.00,weatherlink.com 1.10,2013-01-18 03:33:00,
2013-01-17 22:47:00,37.7,25.0,30.01,ENE,68,4.0,8.0,61,0.00,,,0.00,weatherlink.com 1.10,2013-01-18 03:47:00,
2013-01-17 23:03:00,37.5,25.0,30.04,ENE,60,2.0,9.0,62,0.00,,,0.00,weatherlink.com 1.10,2013-01-18 04:03:00,
2013-01-17 23:18:00,37.2,25.0,30.04,ENE,67,3.0,8.0,61,0.00,,,0.00,weatherlink.com 1.10,2013-01-18 04:18:00,
2013-01-17 23:33:00,37.1,24.0,30.02,ENE,63,6.0,6.0,60,0.00,,,0.00,weatherlink.com 1.10,2013-01-18 04:33:00,
2013-01-17 23:48:00,36.9,24.0,30.02,ENE,68,6.0,6.0,59,0.00,,,0.00,weatherlink.com 1.10,2013-01-18 04:48:00,